sat.trackr.live / text

‹ back to catalog

CENTISPACE-1 S8

NORAD 62577 · 2025-007C

PAYLOAD ACTIVE UNKNOWN

§ Identity

Operator
Country
PRC
Launch date
2025-01-13
Launch site
YSLA
Launch vehicle
Mass (kg)
RCS (m²)

External: N2YO · Heavens-Above · Gunter

§ Orbital elements

Epoch: 2026-09-22T17:56:52.669248Z

Period
104.30 min
Inclination
54.9857°
Eccentricity
0.0012719
Mean motion
13.80626707 rev/d
Perigee alt
952.3 km
Apogee alt
971.0 km
Semi-major
7,339.8 km
B*
6.7668e-5
RAAN
310.4274°
Arg perigee
319.4398°
Mean anomaly
40.5610°
Rev number
8,820

§ Raw data

CENTISPACE-1 S81 62577U 25007C   26265.74783182 -.00000069  00000+0  67668-4 0  99942 62577  54.9857 310.4274 0012719 319.4398  40.5610 13.80626707 88209

JSON: /api/v1/satellites/62577 · /tle

For live sub-satellite position, see the globe view (requires WebGL).

§ Visibility from observer

Set your observer location to see the next 7 days of passes ≥ 10°. The values pass through the URL so the page stays shareable.

No JS? Fill the form by hand. The geolocation button needs JavaScript.